Millville, NJ

2:18 AM EDT on July 24, 2017 (GMT -0400)
Millville Municipal

Weather History for KMIV - May, 2013

Change the Weather History Date:

Thursday, May 9, 2013

  Actual Average Record
Temperature  
Mean Temperature 64 °F -  
Max Temperature 71 °F 69 °F 90 °F (1963)
Min Temperature 55 °F 47 °F 35 °F (1950)
Degree Days  
Heating Degree Days 1    
Growing Degree Days 14 (Base 50)    
Moisture  
Dew Point 55 °F    
Average Humidity 82    
Maximum Humidity 94    
Minimum Humidity 53    
Precipitation  
Precipitation 0.31 in - - ()
Sea Level Pressure  
Sea Level Pressure 29.94 in    
Wind  
Wind Speed 3 mph (NW)    
Max Wind Speed 16 mph    
Max Gust Speed 18 mph    
Visibility 8 miles    
Events Rain    
Averages and records for this station are not official NWS values.
T = Trace of Precipitation, MM = Missing Value Source: NWS Daily Summary

Daily Weather History Graph

Daily Weather History Graph

Search for Another Location

Airport or City:

Trip Planner

Search our weather history database for the weather conditions in past years. The results will help you decide how hot, cold, wet, or windy it might be!

Date:

Astronomy

May. 09, 2013 Rise Set
Actual Time 5:52 AM EDT 8:01 PM EDT
Civil Twilight 5:22 AM EDT 8:31 PM EDT
Nautical Twilight 4:46 AM EDT 9:08 PM EDT
Astronomical Twilight 4:06 AM EDT 9:48 PM EDT
Moon 5:35 AM EDT (5/9) 7:54 PM EDT (5/9)
Length of Visible Light 15h 09m
Length of Day
14h 09m
Waning Crescent, 0% of the Moon is Illuminated
May 9
Waning Crescent
May 9
New
May 18
First Quarter
May 25
Full
May 31
Last Quarter

Hourly Weather History & Observations

Time (EDT) Temp. Dew Point Humidity Pressure Visibility Wind Dir Wind Speed Gust Speed Precip Events Conditions
12:54 AM 57.9 °F 55.9 °F 93% 29.97 in 4.0 mi Calm Calm - 0.02 in Rain Light Rain
1:54 AM 57.9 °F 55.9 °F 93% 29.94 in 4.0 mi North 3.5 mph - 0.00 in   Overcast
2:27 AM 57.2 °F 55.4 °F 94% 29.93 in 4.0 mi East 3.5 mph - N/A   Overcast
2:54 AM 57.9 °F 55.9 °F 93% 29.93 in 5.0 mi Calm Calm - N/A   Overcast
3:04 AM 57.2 °F 55.4 °F 94% 29.92 in 4.0 mi ENE 3.5 mph - N/A   Overcast
3:20 AM 57.2 °F 55.4 °F 94% 29.92 in 5.0 mi NE 3.5 mph - N/A   Overcast
3:30 AM 57.2 °F 55.4 °F 94% 29.92 in 4.0 mi NNE 3.5 mph - 0.00 in Rain Light Rain
3:54 AM 57.9 °F 55.9 °F 93% 29.91 in 4.0 mi NE 5.8 mph - 0.00 in Rain Light Rain
4:03 AM 57.2 °F 55.4 °F 94% 29.92 in 1.8 mi SW 3.5 mph - 0.07 in Rain Heavy Rain
4:18 AM 57.2 °F 55.4 °F 94% 29.92 in 2.0 mi NNE 3.5 mph - 0.18 in Rain Rain
4:37 AM 57.2 °F 55.4 °F 94% 29.92 in 6.0 mi Calm Calm - 0.23 in Rain Light Rain
4:43 AM 57.2 °F 55.4 °F 94% 29.92 in 5.0 mi WNW 4.6 mph - 0.23 in Rain Light Rain
4:54 AM 57.9 °F 55.9 °F 93% 29.92 in 3.0 mi NNW 3.5 mph - 0.25 in Rain Light Rain
5:43 AM 57.2 °F 55.4 °F 94% 29.92 in 5.0 mi Calm Calm - 0.04 in Rain Light Rain
5:54 AM 57.9 °F 55.9 °F 93% 29.92 in 8.0 mi Calm Calm - 0.04 in Rain Light Rain
6:02 AM 57.2 °F 55.4 °F 94% 29.92 in 9.0 mi Calm Calm - 0.00 in Rain Light Rain
6:09 AM 57.2 °F 55.4 °F 94% 29.92 in 9.0 mi Calm Calm - 0.00 in   Overcast
6:39 AM 57.2 °F 55.4 °F 94% 29.93 in 7.0 mi Calm Calm - 0.00 in   Overcast
6:54 AM 57.9 °F 55.9 °F 93% 29.93 in 6.0 mi Calm Calm - 0.00 in   Overcast
7:54 AM 59.0 °F 55.9 °F 90% 29.94 in 10.0 mi North 3.5 mph - N/A   Overcast
8:54 AM 61.0 °F 55.9 °F 83% 29.96 in 10.0 mi WNW 5.8 mph - N/A   Mostly Cloudy
9:01 AM 60.8 °F 55.4 °F 82% 29.96 in 10.0 mi NW 5.8 mph - N/A   Mostly Cloudy
9:30 AM 60.8 °F 55.4 °F 82% 29.96 in 10.0 mi Calm Calm - N/A   Mostly Cloudy
9:54 AM 64.0 °F 55.0 °F 73% 29.96 in 10.0 mi NW 5.8 mph - N/A   Scattered Clouds
10:02 AM 62.6 °F 53.6 °F 72% 29.96 in 10.0 mi WNW 3.5 mph - N/A   Mostly Cloudy
10:54 AM 64.0 °F 54.0 °F 70% 29.96 in 10.0 mi WNW 9.2 mph - N/A   Mostly Cloudy
11:13 AM 64.4 °F 55.4 °F 73% 29.97 in 10.0 mi WNW 6.9 mph - N/A   Scattered Clouds
11:26 AM 66.2 °F 53.6 °F 64% 29.97 in 10.0 mi WSW 10.4 mph - N/A   Mostly Cloudy
11:44 AM 66.2 °F 55.4 °F 68% 29.97 in 10.0 mi West 11.5 mph 17.3 mph N/A   Mostly Cloudy
11:54 AM 66.9 °F 55.0 °F 66% 29.97 in 10.0 mi West 11.5 mph 18.4 mph N/A   Scattered Clouds
1:54 PM 70.0 °F 53.1 °F 55% 29.95 in 10.0 mi West 16.1 mph - N/A   Mostly Cloudy
2:54 PM 71.1 °F 53.1 °F 53% 29.94 in 10.0 mi West 8.1 mph 18.4 mph N/A   Partly Cloudy
3:54 PM 70.0 °F 54.0 °F 57% 29.93 in 10.0 mi Variable 6.9 mph 17.3 mph N/A   Mostly Cloudy
4:54 PM 71.1 °F 54.0 °F 55% 29.93 in 10.0 mi West 9.2 mph - N/A   Overcast
5:54 PM 71.1 °F 54.0 °F 55% 29.93 in 10.0 mi WSW 10.4 mph 16.1 mph N/A   Mostly Cloudy
6:54 PM 66.9 °F 55.9 °F 68% 29.94 in 10.0 mi Calm Calm - N/A   Scattered Clouds
7:54 PM 64.0 °F 55.9 °F 75% 29.95 in 10.0 mi Calm Calm - N/A   Scattered Clouds
8:54 PM 62.1 °F 55.9 °F 80% 29.96 in 10.0 mi Calm Calm - N/A   Scattered Clouds
9:54 PM 60.1 °F 55.9 °F 86% 29.97 in 10.0 mi Calm Calm - N/A   Clear
10:54 PM 57.0 °F 55.0 °F 93% 29.99 in 7.0 mi Calm Calm - N/A   Scattered Clouds
11:54 PM 55.9 °F 54.0 °F 93% 29.98 in 7.0 mi Calm Calm - N/A   Clear